Wind_Speed
67 56 63 65 62 58 57 53 50 55 59 61 63 67 70 64 62 68 71 75 72 55 53 55 50 45 41 38 42 42 36 28 29 24 15 15 20 25 28 24 30 24 23 17
66 56 61 61 57 52 48 47 55 58 65 65 69 69 64 60 58 61 65 61 50 49 53 49 43 41 37 37 40 36 28 28 27 17 12 11 16 22 26 25 29 20 20 18
58 56 60 54 52 48 53 56 59 60 61 64 62 58 56 57 57 55 44 46 46 50 50 39 36 36 35 36 37 27 27 28 23 12 8 8 12 19 24 26 25 20 15 17
50 57 54 53 54 58 61 67 62 61 63 64 66 50 54 54 50 39 38 35 36 44 39 34 34 33 32 34 28 24 28 26 16 9 5 4 11 18 22 29 19 19 19 16
56 66 62 57 63 63 67 67 65 65 64 58 64 50 57 49 45 33 29 31 35 35 35 31 30 30 29 30 22 24 26 22 13 5 1 3 11 20 21 25 23 20 19 15
59 68 62 63 66 68 70 70 73 71 63 57 60 49 50 53 38 37 24 25 31 33 32 25 25 24 27 22 21 25 24 19 13 4 5 7 12 17 21 16 23 19 21 20
68 67 66 68 66 64 62 61 59 57 55 59 58 50 49 41 36 29 22 23 26 29 26 22 24 22 25 19 20 24 23 17 12 4 8 5 11 18 24 21 23 18 16 17
71 68 65 65 64 62 64 65 57 53 56 61 57 44 31 32 24 18 18 25 25 24 23 21 24 23 20 17 20 24 21 16 11 2 11 8 11 17 18 26 22 18 15 12
75 70 70 68 67 67 65 58 55 58 55 56 46 25 22 22 12 16 21 27 30 23 21 20 21 23 18 18 20 21 17 14 6 4 12 10 11 14 19 25 24 15 12 10
77 77 75 73 76 71 68 59 61 55 48 34 23 20 21 12 10 17 18 24 29 24 20 21 26 24 20 17 19 19 14 12 7 3 10 9 9 14 20 23 27 18 13 12
71 71 72 79 68 62 58 53 41 40 34 26 21 22 15 12 8 13 19 23 26 30 22 24 26 24 20 15 18 17 13 10 7 3 14 11 10 12 19 25 26 22 16 13
63 65 66 59 56 53 50 43 44 39 32 26 22 18 15 12 7 13 19 22 25 32 29 24 26 23 18 14 17 17 15 10 6 12 15 10 11 13 16 24 18 20 19 19
73 69 65 63 53 48 38 36 34 29 30 21 23 27 11 10 9 9 17 22 26 29 34 25 25 22 16 15 17 18 16 11 2 12 18 11 15 16 19 17 19 24 20 21
85 74 62 52 42 41 38 36 33 34 29 30 27 25 12 11 13 9 19 20 24 28 32 28 25 22 21 15 16 17 16 9 1 17 18 15 12 13 17 15 21 15 17 20
79 73 62 56 55 47 44 42 44 39 39 30 33 20 14 12 14 11 15 20 23 25 27 31 24 21 20 16 15 15 16 9 1 18 20 17 15 13 14 16 12 9 10 20
80 69 64 61 53 46 44 45 42 42 40 31 24 20 19 12 13 14 14 19 22 23 25 27 31 19 21 17 17 14 14 11 2 16 21 16 14 13 9 13 15 10 8 12
80 72 72 61 58 52 46 47 42 42 40 34 26 29 21 9 12 13 14 17 20 22 24 27 29 21 19 19 15 15 12 12 7 12 21 20 15 17 11 7 10 9 6 5
81 77 76 62 63 61 42 43 42 41 43 37 33 31 24 14 13 16 13 16 19 19 22 23 27 27 18 17 17 13 14 11 9 4 19 21 14 17 17 12 10 4 7 5
84 81 76 68 66 57 49 41 43 42 42 38 34 35 33 21 15 18 17 16 21 19 20 22 24 28 21 15 15 14 11 11 9 6 3 16 17 14 16 16 15 12 7 4
90 85 80 74 72 59 52 51 49 48 47 42 36 36 37 27 17 22 17 17 20 20 17 19 21 23 26 17 13 15 12 10 8 5 2 4 11 18 16 18 16 17 13 9
94 93 86 78 73 66 60 62 60 49 45 49 42 38 37 33 25 24 19 19 19 22 18 16 19 20 23 18 14 14 14 9 8 5 2 1 5 8 11 15 16 15 17 17
96 95 91 85 80 74 66 70 60 54 55 53 47 43 41 41 26 26 21 20 21 24 23 16 16 18 20 21 13 12 12 9 8 6 5 3 3 4 7 11 14 18 20 20
99 97 92 90 88 73 70 72 73 66 61 55 52 49 43 45 34 31 24 23 24 24 25 20 16 17 16 19 16 12 12 11 8 5 5 6 4 4 5 6 8 12 12 12
104 104 93 88 89 79 79 79 75 72 67 58 53 51 47 48 43 37 32 28 26 27 27 23 19 16 16 14 17 14 12 13 9 9 6 7 7 7 6 7 8 9 10 14
103 102 95 90 89 85 85 85 82 78 71 62 58 55 52 52 49 42 38 33 31 31 27 25 23 16 15 14 15 15 14 13 10 10 9 9 8 8 9 8 9 10 10 10
108 106 101 95 95 94 93 92 85 78 72 64 60 59 58 57 55 52 44 37 36 35 31 27 26 20 15 14 14 16 16 16 15 12 12 12 11 10 10 11 9 9 10 11
Wind_Direction
255 260 262 261 262 264 266 269 273 268 269 269 267 268 276 291 302 302 304 308 310 304 308 308 309 308 310 310 314 317 316 320 319 311 294 315 316 329 329 335 342 336 347 339
259 259 258 260 264 264 266 267 262 263 262 264 269 274 282 298 311 313 312 311 306 308 306 307 309 307 310 313 314 317 319 320 319 309 294 308 315 331 326 334 343 336 350 355
251 248 254 259 262 262 263 260 259 261 262 267 272 287 300 308 310 312 307 303 309 307 304 305 306 312 314 314 316 319 320 321 318 302 293 310 332 334 340 337 340 353 352 3
243 246 249 252 254 252 253 251 257 257 260 271 278 300 301 313 314 303 302 314 302 300 301 302 313 317 314 317 319 321 319 323 320 302 311 314 353 353 358 2 358 360 349 360
237 241 243 245 247 250 251 255 256 259 266 281 282 302 302 311 307 294 306 310 298 293 300 305 317 316 314 323 321 322 323 326 324 290 189 15 8 359 2 15 16 15 11 8
240 238 243 242 244 246 250 254 258 264 272 284 283 302 308 303 294 287 305 310 299 304 308 311 323 317 326 323 325 327 327 327 328 297 125 61 28 4 9 8 12 352 359 11
237 239 243 244 247 252 257 262 264 272 281 281 285 299 300 295 282 289 300 308 307 310 314 333 322 321 332 323 329 333 332 325 326 292 152 90 34 16 10 11 19 357 356 1
235 243 254 257 255 257 260 264 272 275 276 279 291 290 279 275 282 309 320 330 337 337 340 331 325 337 330 324 331 337 332 324 320 174 144 97 57 24 360 0 6 17 358 355
240 245 248 251 254 256 259 266 265 271 280 285 279 255 259 278 295 336 345 338 355 351 347 339 343 342 327 329 337 340 330 325 318 158 143 113 53 19 7 2 14 7 12 5
236 239 245 247 250 253 259 263 272 278 275 253 236 244 241 269 310 331 336 346 354 358 356 354 360 347 334 322 339 341 332 323 316 184 146 126 64 21 27 19 22 17 13 40
234 235 242 244 249 257 261 265 260 249 241 228 229 229 238 238 264 322 340 353 353 8 2 1 358 346 335 334 342 342 327 320 310 165 147 133 72 30 39 31 24 26 44 66
236 234 236 242 243 244 245 234 231 226 222 214 219 223 233 257 288 334 336 358 357 7 4 1 356 350 340 346 348 345 331 320 306 159 149 139 83 52 24 22 23 45 67 81
228 228 227 230 228 230 231 227 224 215 220 212 218 226 229 270 286 324 338 0 2 5 4 0 356 360 345 349 351 351 339 330 298 163 166 148 108 80 49 25 52 71 91 87
233 227 226 234 231 225 218 223 220 214 217 216 220 224 228 254 290 336 347 350 0 6 5 2 358 8 354 347 347 358 346 342 188 167 172 146 128 99 81 43 43 96 80 78
228 235 235 226 226 223 217 213 214 205 216 210 223 215 238 253 294 324 340 345 357 6 3 6 359 10 358 342 346 358 352 354 252 177 179 160 150 120 103 81 41 73 89 90
225 227 229 230 230 226 220 220 217 213 217 209 220 232 230 240 277 306 338 340 346 358 7 5 7 8 3 339 349 356 3 357 62 184 191 185 164 161 139 99 86 51 137 101
221 223 226 224 230 224 215 218 216 209 216 212 218 237 221 225 269 296 315 334 336 349 3 4 3 2 8 345 352 9 9 6 16 197 195 197 196 179 171 149 118 104 104 141
219 222 228 220 227 229 217 213 213 207 215 213 216 234 241 235 260 288 302 323 329 338 353 1 4 3 2 355 339 356 5 6 12 30 204 204 214 199 200 206 170 159 108 118
220 220 225 223 227 226 223 219 215 211 218 218 217 231 243 241 254 281 294 320 318 331 344 353 3 358 352 357 342 347 354 6 5 28 176 208 207 213 212 225 227 228 211 153
218 218 219 221 226 224 224 222 220 210 215 221 220 230 242 245 253 265 281 304 306 316 331 342 355 355 359 354 354 343 344 355 3 2 54 196 216 223 232 239 232 218 216 225
214 217 215 220 222 223 218 227 225 215 217 226 227 230 241 248 243 259 278 290 302 308 314 335 344 351 354 351 350 345 333 349 338 349 311 266 220 216 227 239 224 219 221 230
214 216 214 214 219 219 217 225 222 218 217 225 230 233 239 249 246 255 259 280 291 302 306 314 331 343 350 351 341 345 332 317 329 324 321 285 258 245 217 222 232 236 238 242
213 216 217 215 220 216 218 222 224 223 219 218 227 234 237 248 247 247 252 268 279 289 293 296 311 329 342 344 340 318 322 322 296 300 309 299 269 243 241 228 224 231 231 237
214 215 215 215 217 216 218 220 222 226 225 222 226 232 236 245 248 250 254 261 273 282 283 284 291 310 323 336 336 326 312 312 296 276 285 287 298 282 254 237 230 226 233 236
215 218 213 216 216 217 221 223 220 224 225 222 225 230 234 242 249 251 255 260 267 268 272 274 280 296 310 318 326 323 317 305 297 271 270 287 288 286 274 256 243 239 238 237
215 216 216 214 216 217 221 224 225 225 225 223 224 231 236 240 247 251 254 258 262 264 264 264 271 283 292 299 305 313 319 307 295 283 272 264 276 285 266 261 249 240 236 234
Height
10743 10763 10756 10745 10754 10761 10763 10769 10770 10768 10767 10770 10771 10769 10767 10761 10756 10750 10744 10738 10732 10727 10720 10713 10706 10698 10692 10686 10680 10673 10667 10662 10659 10653 10649 10647 10641 10636 10631 10623 10616 10609 10603 10597
10735 10751 10730 10735 10747 10751 10754 10758 10757 10760 10757 10763 10759 10760 10757 10751 10746 10742 10734 10728 10723 10718 10713 10706 10700 10692 10686 10680 10675 10668 10663 10658 10654 10649 10646 10644 10640 10635 10628 10620 10614 10607 10603 10597
10723 10725 10721 10732 10736 10741 10743 10744 10745 10751 10750 10749 10751 10748 10747 10743 10740 10734 10727 10724 10717 10710 10707 10700 10694 10687 10680 10675 10669 10663 10659 10654 10650 10646 10644 10643 10639 10633 10627 10619 10613 10607 10602 10597
10712 10708 10718 10725 10730 10730 10732 10728 10738 10742 10742 10742 10742 10738 10739 10734 10731 10729 10722 10719 10713 10707 10699 10691 10685 10679 10674 10670 10664 10660 10656 10650 10647 10643 10642 10641 10637 10632 10626 10619 10612 10608 10602 10597
10703 10694 10703 10714 10716 10718 10719 10723 10729 10730 10731 10732 10732 10731 10732 10728 10725 10726 10718 10713 10705 10701 10694 10686 10680 10675 10670 10665 10661 10657 10652 10647 10644 10641 10640 10639 10636 10632 10626 10620 10615 10610 10603 10597
10685 10686 10698 10703 10701 10707 10706 10714 10716 10717 10723 10725 10725 10724 10726 10721 10721 10719 10718 10712 10700 10693 10689 10682 10676 10672 10666 10662 10659 10654 10648 10644 10642 10639 10640 10639 10635 10631 10625 10619 10615 10610 10605 10598
10665 10674 10679 10683 10688 10693 10699 10700 10703 10712 10713 10712 10719 10718 10718 10712 10715 10713 10710 10704 10696 10688 10681 10676 10672 10667 10663 10660 10656 10651 10646 10642 10641 10638 10639 10638 10636 10631 10626 10621 10615 10609 10605 10601
10658 10666 10671 10668 10675 10677 10683 10687 10696 10701 10703 10704 10713 10710 10711 10706 10709 10705 10700 10694 10691 10684 10677 10673 10669 10664 10660 10658 10654 10649 10643 10640 10640 10638 10639 10638 10637 10632 10628 10623 10616 10610 10607 10603
10640 10652 10645 10655 10657 10664 10673 10684 10683 10692 10697 10700 10703 10705 10706 10703 10703 10699 10694 10691 10685 10679 10675 10670 10666 10662 10658 10656 10651 10647 10642 10639 10639 10639 10639 10639 10637 10634 10629 10625 10616 10611 10607 10603
10627 10629 10633 10639 10641 10657 10668 10668 10681 10688 10686 10691 10695 10697 10702 10698 10699 10697 10695 10690 10684 10677 10671 10667 10663 10659 10657 10654 10650 10646 10641 10639 10639 10640 10639 10640 10638 10635 10631 10626 10620 10612 10608 10604
10604 10617 10622 10617 10643 10651 10657 10666 10670 10671 10677 10684 10687 10692 10693 10695 10696 10695 10690 10686 10682 10675 10668 10664 10661 10658 10655 10652 10649 10645 10641 10638 10639 10640 10641 10641 10639 10636 10633 10629 10623 10616 10611 10609
10599 10601 10604 10624 10630 10638 10643 10650 10653 10661 10670 10675 10682 10686 10688 10690 10690 10689 10686 10684 10678 10670 10667 10663 10660 10656 10654 10652 10649 10645 10641 10638 10639 10640 10642 10642 10641 10639 10635 10633 10628 10623 10619 10618
10570 10580 10593 10600 10615 10625 10637 10645 10652 10658 10662 10672 10675 10676 10683 10683 10685 10686 10683 10679 10675 10671 10666 10662 10658 10654 10653 10651 10647 10645 10641 10638 10638 10640 10643 10643 10643 10642 10640 10637 10633 10631 10627 10625
10545 10567 10590 10607 10620 10622 10629 10638 10645 10651 10659 10663 10667 10670 10677 10679 10679 10680 10678 10677 10674 10669 10666 10662 10658 10653 10652 10651 10648 10646 10642 10639 10639 10641 10643 10645 10646 10645 10644 10642 10640 10638 10637 10633
10545 10564 10588 10596 10600 10613 10620 10626 10631 10643 10646 10657 10659 10667 10671 10674 10674 10674 10676 10674 10671 10669 10667 10663 10658 10654 10652 10651 10648 10647 10643 10641 10640 10643 10644 10646 10648 10647 10647 10647 10646 10645 10643 10643
10538 10563 10578 10586 10596 10605 10615 10620 10628 10635 10639 10651 10656 10659 10664 10671 10672 10670 10672 10672 10669 10669 10665 10662 10658 10655 10652 10651 10649 10647 10645 10642 10642 10643 10645 10647 10649 10649 10650 10651 10651 10650 10650 10650
10533 10553 10554 10580 10586 10591 10601 10611 10621 10629 10634 10644 10651 10649 10656 10665 10667 10667 10668 10669 10668 10666 10663 10661 10659 10655 10652 10651 10651 10648 10647 10645 10643 10644 10646 10647 10650 10651 10651 10652 10654 10654 10654 10655
10527 10539 10544 10570 10573 10575 10604 10608 10616 10624 10627 10634 10642 10643 10648 10656 10661 10662 10663 10665 10665 10665 10662 10662 10659 10655 10652 10652 10651 10650 10648 10647 10645 10644 10646 10649 10650 10652 10653 10654 10655 10656 10657 10657
10511 10522 10534 10553 10562 10580 10594 10604 10610 10617 10623 10629 10636 10636 10640 10649 10655 10656 10656 10661 10660 10661 10661 10660 10658 10655 10652 10651 10651 10650 10650 10649 10647 10646 10647 10648 10650 10651 10653 10654 10655 10657 10658 10659
10487 10505 10518 10535 10544 10567 10588 10593 10599 10606 10612 10618 10626 10631 10632 10641 10649 10650 10654 10658 10658 10659 10660 10658 10656 10656 10652 10649 10649 10650 10650 10650 10648 10648 10648 10649 10650 10651 10651 10652 10654 10656 10658 10659
10463 10479 10502 10516 10533 10553 10570 10574 10581 10599 10611 10608 10618 10624 10627 10633 10642 10645 10649 10651 10654 10655 10657 10656 10655 10654 10652 10648 10647 10648 10649 10649 10648 10648 10648 10649 10650 10650 10651 10651 10651 10653 10655 10657
10449 10460 10485 10502 10512 10535 10557 10555 10574 10587 10594 10600 10609 10615 10620 10623 10635 10639 10645 10647 10649 10650 10652 10653 10653 10653 10650 10648 10645 10646 10647 10647 10647 10647 10647 10648 10649 10650 10650 10650 10651 10651 10651 10653
10435 10445 10468 10490 10499 10529 10537 10543 10550 10565 10579 10595 10599 10607 10614 10615 10625 10630 10638 10642 10644 10647 10649 10649 10649 10650 10649 10647 10644 10643 10644 10645 10646 10646 10646 10646 10647 10647 10648 10649 10649 10649 10649 10650
10416 10429 10459 10479 10491 10509 10512 10521 10538 10550 10564 10580 10591 10598 10606 10608 10615 10622 10629 10635 10638 10641 10644 10644 10645 10647 10646 10645 10642 10641 10641 10642 10643 10644 10644 10644 10644 10645 10645 10646 10646 10647 10647 10647
10400 10418 10445 10462 10479 10494 10492 10502 10519 10533 10548 10569 10580 10587 10597 10601 10605 10613 10619 10626 10631 10634 10638 10640 10639 10643 10643 10641 10640 10638 10638 10639 10640 10641 10642 10642 10642 10643 10643 10643 10643 10643 10644 10644
10381 10399 10422 10443 10456 10466 10474 10486 10511 10526 10538 10556 10572 10577 10583 10591 10596 10602 10609 10616 10622 10625 10630 10633 10633 10636 10639 10638 10637 10636 10635 10635 10636 10637 10638 10639 10639 10640 10640 10641 10641 10641 10640 10640